If you wish to contribute or participate in the discussions about articles you are invited to join SKYbrary as a registered user

 Actions

Akanu Ibiam International Airport

From SKYbrary Wiki

DNEN
Airport
ICAO: DNEN – IATA: ENU
Summary
Name Akanu Ibiam International Airport
Region Africa
Territory Nigeria NG.gif
Location Emene, Enugu State
Serving Enugu
Elevation 142.037 m
466 ft
466 ft142.037 m
Coordinates 6° 28' 31.66" N, 7° 33' 42.88" E
Runways
Designator Length Width Surface ROPS
8/26 2402 m7,880.577 ft
45 m147.638 ft
ASP /


METAR
Observation DNEN 280800Z 31006KT 9999 SCT011 27/24 Q1014 NOSIG
Station Enugu
Date/Time 28 November 2020 08:00:00
Wind direction 310°
Wind speed 06 kts
Lowest cloud amount scattered clouds
Temperature 27°C
Dew point 24°C
Humidity 83%
QNH 1014 hPa
Weather condition n/a

Akanu Ibiam International Airport, also known as Enugu Airport, is an airport serving Enugu, a city in the Enugu State of Nigeria.

Climatology

Tropical Savanna climate (Köppen climate classification Aw)

Maps

Terrain

Loading map...

Airport Layout

Loading map...


Accidents & Serious Incidents at or in vicinity of DNEN

None on SKYbrary